Regional Weather Roundup
Issued by NWS

Home | Current Version | Previous Version | Text Only | Print | Product List | Glossary Off
Versions: 1 2 3 4 5 6 7 8 9 10 11 12 13 14 15 16 17 18 19 20 21 22 23 24 25 26 27 28 29 30 31 32 33 34 35 36 37 38 39 40 41 42 43 44 45 46 47 48 49 50

564
ASUS43 KMPX 180901
RWRMN
WEATHER ROUNDUP FOR MINNESOTA
NATIONAL WEATHER SERVICE TWIN CITIES/CHANHASSEN MN
400 AM CDT FRI AUG 18 2017


NOTE: "FAIR" INDICATES FEW OR NO CLOUDS BELOW 12,000 FEET WITH NO
SIGNIFICANT WEATHER AND/OR OBSTRUCTIONS TO VISIBILITY. N/A MEANS
CURRENT SKY AND/OR WEATHER CONDITIONS ARE NOT AVAILABLE.

MNZ060>063-068>070-181000-
   Twin Cities Metro

CITY           SKY/WX    TMP DP  RH WIND       PRES   REMARKS
TWIN CITIES    CLEAR     61  57  87 CALM      29.86S
ST PAUL        CLEAR     61  60  97 CALM      29.86S
CRYSTAL        CLEAR     59  55  87 CALM      29.85S
BLAINE         CLEAR     61  61 100 CALM      29.85F
LAKEVILLE      CLEAR     57  57 100 CALM      29.87F
EDEN PRAIRIE   CLEAR     60  58  92 CALM      29.86S
SOUTH ST PAUL  CLEAR     60  59  97 CALM      29.85F
LAKE ELMO      FAIR      59  57  94 NW3       29.87S
$$
MNZ001>005-007-008-013>017-022>024-027-028-181000-
   Northwest Minnesota

CITY           SKY/WX    TMP DP  RH WIND       PRES   REMARKS
BEMIDJI        CLEAR     51  51  97 CALM      29.86S
HALLOCK        CLEAR     52  52 100 CALM      29.83R
ROSEAU         CLEAR     54  48  82 S3        29.84R HAZE
WARROAD        CLEAR     55  52  88 CALM      29.84R
CROOKSTON      PTCLDY    55  54  94 S3        29.85S
FOSSTON        PTCLDY    54  52  94 S5        29.87S
DETROIT LAKES  CLOUDY    61  59  94 CALM      29.89S
MOORHEAD       CLOUDY    59  57  94 CALM      29.88R
PARK RAPIDS    MOCLDY    56  53  90 CALM      29.87S
MAHNOMEN       FAIR      56  55  97 S3        29.87R
$$
MNZ006-009>011-018-025>026-181000-
   North Central Minnesota

CITY           SKY/WX    TMP DP  RH WIND       PRES   REMARKS
BAUDETTE       CLEAR     54  54 100 CALM      29.82S FOG
FLAG ISLAND    CLEAR     63  54  72 CALM      29.81R
INTL FALLS     FOG       49  47  93 CALM      29.83R VSB 1/2
WASKISH        CLEAR     57  55  94 CALM      29.84S
BIG FORK       CLOUDY    46  46 100 CALM      29.85S FOG
LONGVILLE      FOG       54  54 100 CALM      29.85F VSB 3/4
GRAND RAPIDS   CLEAR     56  56 100 N3        29.87S
CRANE LAKE     CLEAR     50  50 100 CALM      29.84R FOG
ORR            PTCLDY    54  52  94 CALM      29.82R FOG
COOK           FOG       50  50 100 CALM      29.84R VSB 1/2
WALKER         FAIR      55  55  98 CALM      29.86S
$$
MNZ012-019>021-037-181000-
   Northeast Minnesota

CITY           SKY/WX    TMP DP  RH WIND       PRES   REMARKS
DULUTH         CLOUDY    57  57 100 NW6       29.82R
ELY            MOCLDY    57  57 100 W5        29.82R
HIBBING        CLEAR     47  47 100 CALM      29.84R FOG
EVELETH        FOG       53  50  90 CALM      29.85R VSB 1/2
DULUTH HARBOR  PTCLDY    61  57  88 W5        29.82S
GRAND MARAIS     N/A     64  58  80 SW3       29.70S
$$
MNZ029>031-032-039>041-046>048-054>057-064-181000-
   West Central Minnesota

CITY           SKY/WX    TMP DP  RH WIND       PRES   REMARKS
FERGUS FALLS   CLOUDY    61  61 100 CALM      29.87F
WHEATON        CLOUDY    61  57  88 CALM      29.88S
MORRIS         CLOUDY    61  61 100 CALM      29.86F
ALEXANDRIA     CLOUDY    61  60  97 W3        29.89F
ELBOW LAKE     FAIR      61  59  95 CALM      29.87F
WADENA         CLOUDY    57  57 100 CALM      29.87S FOG
GLENWOOD       FOG       61  61 100 CALM      29.89F VSB 3/4
APPLETON       CLOUDY    63  59  88 E3        29.86F
BENSON         CLOUDY    61  57  88 CALM      29.88F
ORTONVILLE     CLOUDY    63  57  82 MISG      29.86S
MADISON        CLOUDY    64  64 100 CALM      29.86S
WILLMAR        FAIR      59  59 100 CALM      29.90S
$$
MNZ033>034-036-042>043-049>051-058-059-181000-
   Central Minnesota

CITY           SKY/WX    TMP DP  RH WIND       PRES   REMARKS
ST CLOUD       CLEAR     55  55 100 CALM      29.87S
SAUK CENTRE    FAIR      57  56  99 CALM      29.89S
PAYNESVILLE    CLOUDY    56  56 100 W3        29.89F
AITKIN         CLEAR     55  54  94 W3        29.84F
PINE RIVER     CLOUDY    52  52 100 MISG      29.90S FOG
BRAINERD       CLOUDY    55  55 100 CALM      29.87S FOG
STAPLES        CLOUDY    55  55 100 CALM      29.87F
LONG PRAIRIE   FAIR      55  55 100 CALM      29.89S FOG
LITTLE FALLS   CLOUDY    52  50  93 CALM      29.87F
LITCHFIELD     CLOUDY    63  61  94 SW3       29.89S
BUFFALO        CLEAR     59  57  92 CALM      29.87F
MAPLE LAKE     CLEAR     60  59  99 W3        29.88S
HUTCHINSON     CLEAR     58  58 100 W3        29.90S FOG
$$
MNZ037-044-045-052-053-181000-
   East Central Minnesota

CITY           SKY/WX    TMP DP  RH WIND       PRES   REMARKS
PRINCETON      CLEAR     57  55  94 CALM      29.86F
MORA           CLEAR     54  52  94 CALM      29.87S
RUSH CITY      CLEAR     56  55  96 W3        29.85F
MOOSE LAKE     CLEAR     55  54  94 NW3       29.82F
HINCKLEY       FAIR      55  54  94 W3        29.84F
CLOQUET        CLEAR     55  54  94 W6        29.83S
MCGREGOR       CLEAR     55  54  94 W3        29.85F
$$
MNZ071>073-080-081-089-090-097-098-181000-
   Southwest Minnesota

CITY           SKY/WX    TMP DP  RH WIND       PRES   REMARKS
MONTEVIDEO     CLOUDY    61  61 100 CALM      29.87F
GRANITE FALLS  CLOUDY    62  61  96 CALM      29.89F
CANBY          CLOUDY    64  60  86 CALM      29.89R
MARSHALL       CLOUDY    62  59  90 S7        29.88F
REDWOOD FALLS  CLOUDY    61  58  90 CALM      29.88F
OLIVIA         CLOUDY    59  55  88 CALM      29.87F
PIPESTONE      LGT RAIN  63  55  77 CALM      29.90F
WINDOM         LGT RAIN  61  59  94 CALM      29.91S
WORTHINGTON    CLOUDY    61  59  93 SW6       29.93F
JACKSON        CLOUDY    61  59  94 CALM      29.92R
TRACY          CLOUDY    63  60  90 SW6       29.89F
SLAYTON        LGT RAIN  61  55  78 S7        29.92F
$$
MNZ065>067-074>077-082>085-091>093-181000-
   South Central Minnesota

CITY           SKY/WX    TMP DP  RH WIND       PRES   REMARKS
MANKATO        CLEAR     60  59  96 CALM      29.90S
NEW ULM        MOCLDY    57  57 100 W3        29.89F
ST JAMES       MOCLDY    59  57  94 CALM      29.90F
FAIRMONT       CLOUDY    61  59  93 N3        29.90F
GLENCOE        CLEAR     60  61 100 SW3       29.88S
FARIBAULT      CLEAR     57  57 100 CALM      29.88S
OWATONNA       FOG       55  54  94 SW3       29.89S VSB 3/4
WASECA         FOG       55  55 100 W3        29.91R VSB 3/4
ALBERT LEA     CLEAR     63  61  94 CALM      29.90S FOG
$$
MNZ078>079-086>088-094>096-181000-
   Southeast Minnesota

CITY           SKY/WX    TMP DP  RH WIND       PRES   REMARKS
ROCHESTER      CLEAR     58  58 100 W8        29.89R
RED WING       CLEAR     61  57  88 CALM      29.85R
STANTON        CLEAR     58  56  91 CALM      29.86S
DODGE CENTER   CLEAR     57  55  94 W6        29.90R
WINONA         CLEAR     64  61  88 W8        29.83S
AUSTIN         CLEAR     61  57  88 CALM      29.88F
PRESTON        CLEAR     59  56  91 W6        29.89R
$$
ABBREVIATIONS USED IN REMARKS
   TC - TEMPERATURES IN CELSIUS
  WCI - WIND CHILL INDEX
   HX - HEAT INDEX
  VSB - VISIBILITY
$$




USA.gov is the U.S. government's official web portal to all federal, state and local government web resources and services.